Miles City, MT

2:10 AM MDT on August 19, 2017 (GMT -0600)
Wiley

Weather History for KMLS - November, 2011

Change the Weather History Date:

Saturday, November 12, 2011

  Actual Average Record
Temperature  
Mean Temperature 44 °F 34 °F  
Max Temperature 54 °F 45 °F 81 °F (1999)
Min Temperature 33 °F 23 °F -17 °F (2000)
Degree Days  
Heating Degree Days 21 31  
Month to date heating degree days 364 338  
Since 1 July heating degree days 907 1149  
Cooling Degree Days 0 0  
Month to date cooling degree days 0 0  
Year to date cooling degree days 763 730  
Moisture  
Dew Point 28 °F    
Average Humidity 60    
Maximum Humidity 82    
Minimum Humidity 37    
Precipitation  
Precipitation 0.00 in 0.01 in 0.23 in (2005)
Month to date precipitation 0.18 0.19  
Year to date precipitation 18.61 11.95  
Sea Level Pressure  
Sea Level Pressure 29.36 in    
Wind  
Wind Speed 11 mph (West)    
Max Wind Speed 24 mph    
Max Gust Speed 30 mph    
Visibility 10 miles    
Events      
T = Trace of Precipitation, MM = Missing Value Source: NWS Daily Summary

Daily Weather History Graph

Daily Weather History Graph

Search for Another Location

Airport or City:

Trip Planner

Search our weather history database for the weather conditions in past years. The results will help you decide how hot, cold, wet, or windy it might be!

Date:

Astronomy

Nov. 12, 2011 Rise Set
Actual Time 7:00 AM MST 4:34 PM MST
Civil Twilight 6:28 AM MST 5:06 PM MST
Nautical Twilight 5:51 AM MST 5:42 PM MST
Astronomical Twilight 5:16 AM MST 6:18 PM MST
Moon 5:45 PM MST (11/12) 8:52 AM MST (11/12)
Length of Visible Light 10h 38m
Length of Day
9h 33m
Waning Gibbous, 97% of the Moon is Illuminated
Nov 12
Waning Gibbous
Nov 18
Last Quarter
Nov 24
New
Dec 2
First Quarter
Dec 10
Full

Hourly Weather History & Observations

Time (MST) Temp. Windchill Dew Point Humidity Pressure Visibility Wind Dir Wind Speed Gust Speed Precip Events Conditions
12:53 AM 37.0 °F 31.0 °F 21.0 °F 52% 29.34 in 10.0 mi SSE 8.1 mph - N/A   Clear
1:53 AM 39.0 °F 33.4 °F 19.9 °F 46% 29.33 in 10.0 mi SSE 8.1 mph - N/A   Clear
2:53 AM 37.9 °F 30.5 °F 21.0 °F 51% 29.32 in 10.0 mi SSE 11.5 mph - N/A   Partly Cloudy
3:53 AM 37.0 °F 31.0 °F 21.9 °F 54% 29.32 in 10.0 mi SSE 8.1 mph - N/A   Clear
4:53 AM 37.0 °F 33.3 °F 21.9 °F 54% 29.32 in 10.0 mi SW 4.6 mph - N/A   Partly Cloudy
5:53 AM 44.6 °F 38.8 °F 24.8 °F 46% 29.30 in 10.0 mi SW 11.5 mph - N/A   Clear
6:53 AM 46.0 °F 41.0 °F 21.0 °F 37% 29.33 in 10.0 mi West 10.4 mph - N/A   Clear
7:53 AM 45.0 °F 40.1 °F 24.1 °F 44% 29.34 in 10.0 mi West 9.2 mph - N/A   Clear
8:53 AM 48.0 °F - 28.9 °F 48% 29.36 in 10.0 mi West 15.0 mph - N/A   Mostly Cloudy
9:53 AM 50.0 °F - 32.0 °F 50% 29.37 in 10.0 mi West 21.9 mph 27.6 mph N/A   Overcast
10:53 AM 48.9 °F - 33.1 °F 54% 29.37 in 10.0 mi WNW 12.7 mph - N/A   Overcast
11:53 AM 53.1 °F - 30.9 °F 43% 29.35 in 10.0 mi West 13.8 mph 21.9 mph N/A   Mostly Cloudy
12:53 PM 51.1 °F - 30.0 °F 44% 29.35 in 10.0 mi NNW 12.7 mph - N/A   Mostly Cloudy
1:53 PM 48.9 °F - 32.0 °F 52% 29.35 in 10.0 mi WNW 11.5 mph - N/A   Mostly Cloudy
2:53 PM 46.9 °F - 32.0 °F 56% 29.37 in 10.0 mi West 8.1 mph - N/A   Overcast
3:53 PM 46.0 °F 41.4 °F 33.1 °F 61% 29.38 in 10.0 mi West 9.2 mph - N/A   Overcast
4:53 PM 41.0 °F 35.8 °F 32.0 °F 70% 29.38 in 10.0 mi West 8.1 mph - N/A   Scattered Clouds
5:53 PM 42.1 °F 36.1 °F 30.9 °F 65% 29.37 in 10.0 mi West 10.4 mph - N/A   Overcast
6:53 PM 41.0 °F 35.8 °F 30.0 °F 65% 29.38 in 10.0 mi NNW 8.1 mph - N/A   Overcast
7:53 PM 41.0 °F 33.5 °F 30.0 °F 65% 29.39 in 10.0 mi WNW 13.8 mph - N/A   Overcast
8:53 PM 39.9 °F 32.1 °F 30.0 °F 68% 29.39 in 10.0 mi WNW 13.8 mph - N/A   Overcast
9:53 PM 37.9 °F 30.9 °F 30.0 °F 73% 29.38 in 10.0 mi West 10.4 mph - N/A   Overcast
10:53 PM 34.0 °F 27.2 °F 28.9 °F 82% 29.37 in 10.0 mi SW 8.1 mph - N/A   Scattered Clouds
11:53 PM 33.1 °F 25.5 °F 27.0 °F 78% 29.36 in 10.0 mi SW 9.2 mph - N/A   Clear